Regional Weather Roundup
Issued by NWS

Home | Current Version | Previous Version | Text Only | Print | Product List | Glossary Off
Versions: 1 2 3 4 5 6 7 8 9 10 11 12 13 14 15 16 17 18 19 20 21 22 23 24 25 26 27 28

000
ASUS45 KCYS 071710
RWRWY

WYOMING REGIONAL WEATHER ROUNDUP
NATIONAL WEATHER SERVICE CHEYENNE WY
1000 AM MST WED DEC 07 2016

NOTE:  "FAIR" INDICATES FEW OR NO CLOUDS BELOW 12,000 FEET
WITH NO SIGNIFICANT WEATHER AND/OR OBSTRUCTIONS TO VISIBILITY.

WYZ001-071800-
YELLOWSTONE NATIONAL PARK

CITY           SKY/WX    TMP DP  RH WIND       PRES   REMARKS
LK YELLOWSTONE   N/A    -13 -17  82 CALM      30.04R
W YELLOWSTONE  NOT AVBL

$$
WYZ002>013-054>058-071-098>099-071800-
NORTHERN WYOMING

CITY           SKY/WX    TMP DP  RH WIND       PRES   REMARKS
JACKSON        CLOUDY    -2  -6  84 CALM      30.14R
CODY           CLOUDY     1  -4  79 CALM      30.28R
GREYBULL       CLOUDY     9  -3  58 N9        30.35R WCI  -4
WORLAND        CLOUDY     8  -1  66 N9        30.34R WCI  -5
SHERIDAN       PTSUNNY  N/A N/A N/A MISG      30.38R
BUFFALO        CLOUDY     0  -7  72 NW14      30.28R WCI -19
GILLETTE       CLOUDY    -1  -6  79 NW8       30.32R WCI -15
HULETT         CLOUDY     1  -6  71 W12       30.31R HAZE    WCI -15
NEWCASTLE      CLOUDY     0  -8  71 NW15      30.32R WCI -20

$$
WYZ014>020-022>026-101>103-071800-
CENTRAL WYOMING

CITY           SKY/WX    TMP DP  RH WIND       PRES   REMARKS
BIG PINEY      FAIR       3  -2  79 SE5       30.10R WCI  -6
PINEDALE       PTSUNNY    3  -4  72 MISG      30.09R
DUBOIS         FAIR      -6 -15  65 NW9       30.06R WCI -22
LANDER         CLOUDY     5  -1  76 CALM      30.21R
RIVERTON       LGT SNOW   7   1  76 CALM      30.22R
CASPER         CLOUDY    -1  -5  82 NW3       30.25R
DOUGLAS        CLOUDY     3  -2  79 NW7       30.27R WCI  -9

$$
WYZ021-027>030-104>119-071800-
SOUTHERN WYOMING

CITY           SKY/WX    TMP DP  RH WIND       PRES   REMARKS
EVANSTON       FAIR      10   2  69 NE3       30.10R
FORT BRIDGER   FAIR      10   5  79 W6        30.14R WCI   1
ROCK SPRINGS   CLOUDY     4  -1  80 NE8       30.11R HAZE    WCI  -9
DIXON          FAIR       8   0  70 W5        30.14R WCI   0
RAWLINS        PTSUNNY    5  -3  69 NW5       30.09R WCI  -4
SARATOGA       LGT SNOW   5   0  78 N5        30.07R WCI  -4
LARAMIE        FLURRIES  -1  -7  75 NW6       30.01R WCI -13
CHEYENNE       CLOUDY     2  -6  69 N9        30.12R HAZE    WCI -13
TORRINGTON     CLOUDY     8  -2  63 NW14      30.29R WCI  -8
PINE BLUFFS    CLOUDY     5   0  78 N13G21    30.20R WCI -12

$$




USA.gov is the U.S. government's official web portal to all federal, state and local government web resources and services.